Location: Newark
(22.3091°N, 72.0172°E)
Time: 12:00:27
(UTC+00:00)

ISS - Visible Passes

Search period start: 15 July 2020 00:00
Search period end: 25 July 2020 00:00
Orbit: 417 x 419 km, 51.6° (Epoch: 16 July)

Date Brightness Start Highest point End Pass type
(mag) Time Alt. Az. Time Alt. Az. Time Alt. Az.
15 Jul -3.4 14:17:36 10° SSW 14:20:46 41° SE 14:23:57 10° NE visible
15 Jul -0.1 15:56:55 10° NW 15:57:39 11° NW 15:58:21 10° NNW visible
16 Jul -3.8 00:07:19 10° NW 00:10:38 69° SW 00:13:57 10° SSE visible
16 Jul -0.7 15:07:03 10° W 15:09:33 19° NW 15:12:03 10° N visible
16 Jul -2.8 23:19:27 10° NNW 23:22:42 50° NE 23:25:58 10° SE visible
17 Jul -2.0 14:18:23 10° WSW 14:21:32 38° NW 14:24:41 10° NNE visible
17 Jul -1.4 22:31:55 10° N 22:34:43 24° NE 22:37:29 10° ESE visible
18 Jul -2.0 00:09:17 10° W 00:11:16 15° SW 00:13:14 10° SSW visible
18 Jul -1.5 23:25:52 13° S 23:25:52 13° S 23:26:24 10° S visible
19 Jul -0.1 14:21:30 10° WNW 14:22:29 11° NW 14:23:28 10° NNW visible
